sat.trackr.live / text

‹ back to catalog

STARLINK-37728

NORAD 69221 · 2026-115L

PAYLOAD ACTIVE UNKNOWN

§ Identity

Operator
Country
US
Launch date
2026-05-26
Launch site
AFWTR
Launch vehicle
Mass (kg)
RCS (m²)

Purposes: comms

External: N2YO · Heavens-Above · Gunter

§ Orbital elements

Epoch: 2026-09-19T22:29:12.721056Z

Period
93.91 min
Inclination
97.2840°
Eccentricity
0.0001718
Mean motion
15.33446693 rev/d
Perigee alt
464.4 km
Apogee alt
466.7 km
Semi-major
6,843.7 km
B*
2.2987e-4
RAAN
279.0324°
Arg perigee
105.7212°
Mean anomaly
254.4220°
Rev number
1,920

§ Raw data

STARLINK-377281 69221U 26115L   26262.93695279  .00007354  00000+0  22987-3 0  99922 69221  97.2840 279.0324 0001718 105.7212 254.4220 15.33446693 19209

JSON: /api/v1/satellites/69221 · /tle

For live sub-satellite position, see the globe view (requires WebGL).

§ Visibility from observer

Set your observer location to see the next 7 days of passes ≥ 10°. The values pass through the URL so the page stays shareable.

No JS? Fill the form by hand. The geolocation button needs JavaScript.